Simultaneous Nadir Overpasses (SNOs) Predictions

Prediction of SNOs between AQUA and NOAA-19 Satellite Orbit:

Table of predicted SNOs for the next 14.0 days since TLE Epoch: 8/5/2023
Index Date (AQUA) Time (AQUA) Lat,Lon (AQUA) SZA (AQUA ) Date (NOAA-19) Time (NOAA-19) Lat,Lon (NOAA-19) SZA (NOAA-19 ) Distance(km) Time Diff (sec)
1 08/05/2023 03:20:19 76.33, 121.33 59.43 08/05/2023 03:19:55 76.32, 121.30 59.43 0.96 24
2 08/05/2023 04:09:44 -76.39, -71.22 120.50 08/05/2023 04:10:53 -76.40, -71.15 120.50 2.06 69
3 08/07/2023 08:02:12 76.31, 50.94 60.00 08/07/2023 08:01:21 76.31, 50.97 60.02 0.84 51
4 08/07/2023 08:51:37 -76.36,-141.60 119.93 08/07/2023 08:52:20 -76.37,-141.55 119.93 1.33 43
5 08/09/2023 12:44:02 76.18, -19.09 60.48 08/09/2023 12:42:51 76.12, -20.05 60.47 26.72 71
6 08/09/2023 13:33:29 -76.33, 148.07 119.35 08/09/2023 13:33:47 -76.34, 148.03 119.34 1.21 18
7 08/11/2023 18:15:21 -76.33, 77.62 118.70 08/11/2023 18:15:13 -76.34, 77.74 118.70 3.20 8
8 08/11/2023 19:04:55 76.78,-116.29 61.83 08/11/2023 19:06:00 76.78,-113.19 61.68 78.86 65
9 08/13/2023 22:57:11 -76.28, 7.37 118.11 08/13/2023 22:56:40 -76.29, 7.25 118.09 3.12 31
10 08/13/2023 23:46:37 76.35, 174.77 61.99 08/13/2023 23:47:35 76.36, 174.81 61.99 1.58 58
11 08/16/2023 03:39:01 -76.26, -63.00 117.46 08/16/2023 03:38:06 -76.27, -63.09 117.43 2.95 55
12 08/16/2023 04:28:27 76.33, 104.40 62.64 08/16/2023 04:29:01 76.32, 104.36 62.63 1.48 34
13 08/18/2023 08:20:48 -76.13,-133.02 116.91 08/18/2023 08:19:37 -76.03,-134.29 116.94 35.81 71
14 08/18/2023 09:10:16 76.30, 34.06 63.30 08/18/2023 09:10:26 76.32, 34.06 63.32 1.74 10



Historial Predications of SNOs between AQUA and NOAA-19
